Bellingham, WA

5:05 AM PDT on August 27, 2016 (GMT -0700)
Bellingham International

Weather History for KBLI - February, 2013

Change the Weather History Date:

Thursday, February 14, 2013

  Actual Average Record
Temperature  
Mean Temperature 44 °F 41 °F  
Max Temperature 46 °F 48 °F 59 °F (1992)
Min Temperature 42 °F 33 °F 12 °F (1956)
Degree Days  
Heating Degree Days 21 24  
Month to date heating degree days 347  
Cooling Degree Days 0 0  
Month to date cooling degree days 0  
Year to date cooling degree days 0  
Moisture  
Dew Point 41 °F    
Average Humidity 89    
Maximum Humidity 97    
Minimum Humidity 76    
Precipitation  
Precipitation 0.15 in 0.11 in 1.68 in (1982)
Month to date precipitation 1.58  
Year to date precipitation 6.25  
Sea Level Pressure  
Sea Level Pressure 30.55 in    
Wind  
Wind Speed 3 mph (East)    
Max Wind Speed 9 mph    
Max Gust Speed -    
Visibility 7 miles    
Events Rain    
T = Trace of Precipitation, MM = Missing Value Source: NWS Daily Summary

Daily Weather History Graph

Daily Weather History Graph

Search for Another Location

Airport or City:

Trip Planner

Search our weather history database for the weather conditions in past years. The results will help you decide how hot, cold, wet, or windy it might be!

Date:

Astronomy

Feb. 14, 2013 Rise Set
Actual Time 7:19 AM PST 5:30 PM PST
Civil Twilight 6:46 AM PST 6:02 PM PST
Nautical Twilight 6:09 AM PST 6:39 PM PST
Astronomical Twilight 5:33 AM PST 7:16 PM PST
Moon 8:55 AM PST (2/14) 11:10 PM PST (2/14)
Length of Visible Light 11h 16m
Length of Day
10h 10m
Waxing Crescent, 22% of the Moon is Illuminated
Feb 14
Waxing Crescent
Feb 17
First Quarter
Feb 25
Full
Mar 4
Last Quarter
Mar 11
New

Hourly Weather History & Observations

Time (PST) Temp. Windchill Dew Point Humidity Pressure Visibility Wind Dir Wind Speed Gust Speed Precip Events Conditions
12:53 AM 45.0 °F 41.2 °F 37.9 °F 76% 30.50 in 10.0 mi SSE 6.9 mph - N/A   Overcast
1:53 AM 45.0 °F 42.6 °F 37.9 °F 76% 30.50 in 10.0 mi SSE 4.6 mph - N/A   Overcast
2:53 AM 45.0 °F 40.1 °F 39.0 °F 80% 30.50 in 10.0 mi South 9.2 mph - 0.00 in Rain Light Rain
3:53 AM 44.1 °F 41.5 °F 41.0 °F 89% 30.51 in 7.0 mi South 4.6 mph - 0.00 in Rain Light Rain
4:03 AM 44.6 °F 42.2 °F 41.0 °F 87% 30.49 in 6.0 mi South 4.6 mph - 0.01 in Rain Light Rain
4:48 AM 44.6 °F - 41.0 °F 87% 30.51 in 5.0 mi Calm Calm - 0.07 in Rain Light Rain
4:53 AM 44.1 °F - 41.0 °F 89% 30.53 in 6.0 mi Calm Calm - 0.08 in Rain Light Rain
5:00 AM 42.8 °F 41.1 °F 41.0 °F 93% 30.51 in 6.0 mi Variable 3.5 mph - 0.00 in Rain Light Rain
5:53 AM 43.0 °F - 41.0 °F 93% 30.53 in 7.0 mi Calm Calm - 0.04 in Rain Light Rain
6:39 AM 42.8 °F - 41.0 °F 93% 30.51 in 9.0 mi Calm Calm - 0.02 in Rain Light Rain
6:53 AM 42.1 °F - 41.0 °F 96% 30.54 in 9.0 mi Calm Calm - 0.03 in Rain Light Rain
7:53 AM 42.1 °F - 41.0 °F 96% 30.55 in 4.0 mi Calm Calm - 0.00 in Rain Light Rain
8:50 AM 44.6 °F 43.1 °F 42.8 °F 93% 30.52 in 8.0 mi SE 3.5 mph - 0.00 in   Overcast
8:53 AM 44.1 °F - 41.0 °F 89% 30.55 in 8.0 mi Calm Calm - 0.00 in   Overcast
9:53 AM 45.0 °F - 42.1 °F 90% 30.57 in 6.0 mi Calm Calm - N/A   Overcast
10:53 AM 45.0 °F - 41.0 °F 86% 30.57 in 10.0 mi Calm Calm - N/A   Overcast
11:53 AM 46.0 °F - 42.1 °F 86% 30.58 in 10.0 mi Calm Calm - N/A   Overcast
12:53 PM 46.0 °F 43.1 °F 41.0 °F 83% 30.57 in 10.0 mi SSE 5.8 mph - N/A   Overcast
1:53 PM 46.9 °F - 41.0 °F 80% 30.58 in 10.0 mi South 5.8 mph - N/A   Overcast
2:53 PM 46.9 °F - 41.0 °F 80% 30.58 in 10.0 mi Calm Calm - N/A   Overcast
3:49 PM 46.4 °F - 42.8 °F 87% 30.56 in 10.0 mi Calm Calm - N/A   Overcast
3:53 PM 46.0 °F - 43.0 °F 89% 30.58 in 10.0 mi Calm Calm - N/A   Overcast
4:33 PM 44.6 °F - 42.8 °F 93% 30.55 in 2.0 mi Calm Calm - N/A   Overcast
4:53 PM 45.0 °F 43.5 °F 43.0 °F 93% 30.58 in 1.8 mi ENE 3.5 mph - N/A   Overcast
5:07 PM 44.6 °F 43.1 °F 42.8 °F 93% 30.55 in 2.0 mi ENE 3.5 mph - N/A   Overcast
5:29 PM 44.6 °F - 42.8 °F 93% 30.55 in 4.0 mi Calm Calm - N/A   Overcast
5:53 PM 44.1 °F 42.5 °F 42.1 °F 93% 30.59 in 10.0 mi NNE 3.5 mph - N/A   Overcast
6:53 PM 44.1 °F - 42.1 °F 93% 30.59 in 4.0 mi Calm Calm - N/A   Overcast
7:53 PM 44.1 °F 42.5 °F 42.1 °F 93% 30.59 in 6.0 mi NE 3.5 mph - N/A   Overcast
8:53 PM 44.1 °F 42.5 °F 42.1 °F 93% 30.59 in 9.0 mi NNE 3.5 mph - N/A   Overcast
9:53 PM 44.1 °F 42.5 °F 42.1 °F 93% 30.59 in 8.0 mi NNE 3.5 mph - N/A   Overcast
10:53 PM 44.1 °F 42.5 °F 42.1 °F 93% 30.60 in 5.0 mi North 3.5 mph - N/A   Overcast
11:12 PM 44.6 °F 42.2 °F 42.8 °F 93% 30.58 in 2.5 mi NNE 4.6 mph - N/A   Overcast
11:53 PM 43.0 °F 40.3 °F 42.1 °F 97% 30.60 in 2.0 mi NNE 4.6 mph - N/A   Overcast